MKU169 PHLI-PHNL

Flight info

Callsign MKU169
Flight time 0h 22m
Altitude 15000
Route LIH V15 BOOKE
Aircraft DH8D/M-SDE2E3FGRY/H

Departure

Time 2026-04-21 20:18
Airport Lihue Airport (PHLI)

Arrival

Time 2026-04-21 20:41
Airport Daniel K. Inouye International Airport (PHNL)
Time Latitude Longitude Altitude Speed Heading
2026-04-21 19:53 21.97920 -159.34685 180 ft 0 kts 315°
2026-04-21 20:09 21.97917 -159.34682 181 ft 1 kts 323°
2026-04-21 20:09 21.97905 -159.34672 181 ft 2 kts 323°
2026-04-21 20:09 21.97893 -159.34663 181 ft 2 kts 323°
2026-04-21 20:10 21.97882 -159.34654 181 ft 2 kts 323°
2026-04-21 20:10 21.97869 -159.34644 180 ft 1 kts 323°
2026-04-21 20:10 21.97865 -159.34641 180 ft 0 kts 304°
2026-04-21 20:10 21.97864 -159.34634 180 ft 0 kts 249°
2026-04-21 20:11 21.97867 -159.34628 180 ft 1 kts 224°
2026-04-21 20:11 21.97868 -159.34628 180 ft 0 kts 224°
2026-04-21 20:13 21.97859 -159.34637 181 ft 3 kts 225°
2026-04-21 20:13 21.97849 -159.34648 181 ft 0 kts 225°
2026-04-21 20:13 21.97846 -159.34651 181 ft 0 kts 225°
2026-04-21 20:13 21.97845 -159.34653 181 ft 0 kts 225°
2026-04-21 20:14 21.97827 -159.34668 181 ft 5 kts 206°
2026-04-21 20:14 21.97789 -159.34665 181 ft 6 kts 148°
2026-04-21 20:14 21.97758 -159.34631 180 ft 6 kts 133°
2026-04-21 20:14 21.97721 -159.34611 180 ft 6 kts 181°
2026-04-21 20:15 21.97679 -159.34637 180 ft 7 kts 226°
2026-04-21 20:15 21.97640 -159.34680 181 ft 8 kts 225°
2026-04-21 20:15 21.97596 -159.34726 181 ft 9 kts 223°
2026-04-21 20:15 21.97548 -159.34775 181 ft 9 kts 226°
2026-04-21 20:16 21.97500 -159.34830 181 ft 10 kts 226°
2026-04-21 20:16 21.97447 -159.34885 181 ft 10 kts 224°
2026-04-21 20:16 21.97392 -159.34937 181 ft 8 kts 201°
2026-04-21 20:16 21.97341 -159.34920 181 ft 8 kts 137°
2026-04-21 20:17 21.97318 -159.34885 181 ft 4 kts 104°
2026-04-21 20:17 21.97323 -159.34851 181 ft 4 kts 61°
2026-04-21 20:17 21.97346 -159.34825 181 ft 6 kts 44°
2026-04-21 20:17 21.97571 -159.34582 181 ft 94 kts 45°
2026-04-21 20:18 21.98202 -159.33897 269 ft 149 kts 47°
2026-04-21 20:18 21.98889 -159.33006 768 ft 162 kts 63°
2026-04-21 20:18 21.98985 -159.31801 1311 ft 174 kts 109°
2026-04-21 20:18 21.98299 -159.30754 1920 ft 182 kts 131°
2026-04-21 20:19 21.97469 -159.29721 2537 ft 192 kts 129°
2026-04-21 20:19 21.96599 -159.28636 3172 ft 199 kts 130°
2026-04-21 20:19 21.95729 -159.27539 3822 ft 204 kts 130°
2026-04-21 20:19 21.94782 -159.26349 4550 ft 208 kts 130°
2026-04-21 20:20 21.93847 -159.25165 5277 ft 211 kts 130°
2026-04-21 20:20 21.92906 -159.23969 5977 ft 214 kts 130°
2026-04-21 20:20 21.91958 -159.22755 6692 ft 214 kts 130°
2026-04-21 20:20 21.91015 -159.21545 7237 ft 217 kts 130°
2026-04-21 20:21 21.90036 -159.20285 7781 ft 223 kts 130°
2026-04-21 20:21 21.89039 -159.19003 8414 ft 222 kts 129°
2026-04-21 20:21 21.88085 -159.17709 8936 ft 225 kts 127°
2026-04-21 20:21 21.87150 -159.16350 9452 ft 230 kts 126°
2026-04-21 20:22 21.86214 -159.14917 9800 ft 241 kts 124°
2026-04-21 20:22 21.84276 -159.11757 10590 ft 258 kts 122°
2026-04-21 20:22 21.83323 -159.10146 11046 ft 263 kts 122°
2026-04-21 20:23 21.82338 -159.08460 11553 ft 265 kts 122°
2026-04-21 20:23 21.81371 -159.06790 11991 ft 268 kts 121°
2026-04-21 20:23 21.80383 -159.05067 12386 ft 273 kts 121°
2026-04-21 20:23 21.79383 -159.03317 12900 ft 272 kts 121°
2026-04-21 20:24 21.78398 -159.01587 13305 ft 275 kts 121°
2026-04-21 20:24 21.77381 -158.99795 13730 ft 278 kts 121°
2026-04-21 20:24 21.76383 -158.98035 14167 ft 277 kts 121°
2026-04-21 20:24 21.75388 -158.96277 14519 ft 281 kts 120°
2026-04-21 20:25 21.74349 -158.94450 14825 ft 287 kts 121°
2026-04-21 20:25 21.73269 -158.92612 14931 ft 300 kts 121°
2026-04-21 20:25 21.72129 -158.90663 14963 ft 315 kts 121°
2026-04-21 20:25 21.70947 -158.88617 14966 ft 327 kts 121°
2026-04-21 20:26 21.69731 -158.86494 14966 ft 336 kts 120°
2026-04-21 20:26 21.68508 -158.84343 14961 ft 341 kts 120°
2026-04-21 20:26 21.67280 -158.82172 14960 ft 339 kts 120°
2026-04-21 20:26 21.66048 -158.79988 14958 ft 340 kts 120°
2026-04-21 20:27 21.64810 -158.77792 14957 ft 340 kts 120°
2026-04-21 20:27 21.63602 -158.75647 14958 ft 336 kts 120°
2026-04-21 20:27 21.62391 -158.73494 14780 ft 336 kts 120°
2026-04-21 20:27 21.61174 -158.71330 14389 ft 340 kts 120°
2026-04-21 20:28 21.59964 -158.69179 13924 ft 338 kts 120°
2026-04-21 20:28 21.58739 -158.67001 13430 ft 339 kts 120°
2026-04-21 20:28 21.57537 -158.64864 12881 ft 332 kts 120°
2026-04-21 20:28 21.56361 -158.62773 12337 ft 327 kts 121°
2026-04-21 20:29 21.55183 -158.60683 11785 ft 324 kts 120°
2026-04-21 20:29 21.54050 -158.58675 11239 ft 317 kts 121°
2026-04-21 20:29 21.52906 -158.56648 10686 ft 314 kts 121°
2026-04-21 20:29 21.51785 -158.54665 10130 ft 308 kts 121°
2026-04-21 20:30 21.50686 -158.52721 9570 ft 301 kts 121°
2026-04-21 20:30 21.49602 -158.50806 9003 ft 295 kts 121°
2026-04-21 20:30 21.48549 -158.48947 8430 ft 289 kts 121°
2026-04-21 20:30 21.47531 -158.47154 7850 ft 282 kts 120°
2026-04-21 20:31 21.46520 -158.45371 7269 ft 279 kts 120°
2026-04-21 20:31 21.45505 -158.43623 6682 ft 273 kts 122°
2026-04-21 20:31 21.44488 -158.41952 6110 ft 270 kts 122°
2026-04-21 20:31 21.43475 -158.40294 5757 ft 258 kts 122°
2026-04-21 20:32 21.42526 -158.38741 5551 ft 240 kts 122°
2026-04-21 20:32 21.41611 -158.37245 5369 ft 236 kts 122°
2026-04-21 20:32 21.40717 -158.35783 5192 ft 230 kts 122°
2026-04-21 20:32 21.39868 -158.34392 5016 ft 228 kts 122°
2026-04-21 20:33 21.38978 -158.32938 4851 ft 234 kts 122°
2026-04-21 20:33 21.38083 -158.31473 4680 ft 238 kts 122°
2026-04-21 20:33 21.37178 -158.29991 4510 ft 240 kts 122°
2026-04-21 20:33 21.36285 -158.28525 4321 ft 232 kts 122°
2026-04-21 20:34 21.35451 -158.27156 4128 ft 212 kts 123°
2026-04-21 20:34 21.34641 -158.25839 4044 ft 210 kts 123°
2026-04-21 20:34 21.33885 -158.24605 4005 ft 206 kts 122°
2026-04-21 20:34 21.33137 -158.23377 3968 ft 199 kts 122°
2026-04-21 20:35 21.32651 -158.22025 3968 ft 192 kts 90°
2026-04-21 20:35 21.32681 -158.20651 3981 ft 191 kts 92°
2026-04-21 20:35 21.32566 -158.19251 3988 ft 192 kts 92°
2026-04-21 20:35 21.32552 -158.17815 3992 ft 193 kts 89°
2026-04-21 20:36 21.32533 -158.16414 3915 ft 199 kts 90°
2026-04-21 20:36 21.32523 -158.14888 3702 ft 207 kts 89°
2026-04-21 20:36 21.32527 -158.13397 3387 ft 199 kts 89°
2026-04-21 20:36 21.32524 -158.12001 3071 ft 190 kts 89°
2026-04-21 20:37 21.32524 -158.10622 2818 ft 185 kts 89°
2026-04-21 20:37 21.32524 -158.09288 2578 ft 178 kts 90°
2026-04-21 20:37 21.32523 -158.08015 2381 ft 172 kts 89°
2026-04-21 20:37 21.32520 -158.06735 2222 ft 175 kts 89°
2026-04-21 20:38 21.32520 -158.05421 2007 ft 176 kts 89°
2026-04-21 20:38 21.32521 -158.04112 1757 ft 171 kts 89°
2026-04-21 20:38 21.32522 -158.02861 1576 ft 167 kts 90°
2026-04-21 20:38 21.32519 -158.01649 1387 ft 168 kts 90°
2026-04-21 20:39 21.32524 -158.00444 1118 ft 154 kts 90°
2026-04-21 20:39 21.32523 -157.99350 927 ft 148 kts 91°
2026-04-21 20:39 21.32518 -157.98256 742 ft 146 kts 91°
2026-04-21 20:39 21.32516 -157.97163 567 ft 150 kts 92°
2026-04-21 20:40 21.32507 -157.96062 371 ft 150 kts 90°
2026-04-21 20:40 21.32514 -157.94930 189 ft 149 kts 90°
2026-04-21 20:40 21.32525 -157.93835 30 ft 138 kts 91°
2026-04-21 20:40 21.32526 -157.93085 29 ft 64 kts 90°
2026-04-21 20:41 21.32538 -157.92856 29 ft 14 kts 51°
2026-04-21 20:41 21.32580 -157.92802 29 ft 7 kts 49°
2026-04-21 20:41 21.32632 -157.92776 29 ft 10 kts
2026-04-21 20:41 21.32710 -157.92775 29 ft 11 kts 352°
2026-04-21 20:42 21.32788 -157.92804 29 ft 12 kts 353°
2026-04-21 20:42 21.32874 -157.92799 29 ft 13 kts 20°
2026-04-21 20:42 21.32951 -157.92741 29 ft 14 kts 46°
2026-04-21 20:42 21.33020 -157.92664 29 ft 14 kts 45°
2026-04-21 20:43 21.33091 -157.92587 29 ft 14 kts 45°
2026-04-21 20:43 21.33147 -157.92548 30 ft 8 kts 14°
2026-04-21 20:43 21.33213 -157.92541 30 ft 9 kts
2026-04-21 20:43 21.33279 -157.92534 30 ft 8 kts
2026-04-21 20:44 21.33316 -157.92520 30 ft 5 kts 64°
2026-04-21 20:44 21.33314 -157.92479 30 ft 2 kts 98°
2026-04-21 20:44 21.33313 -157.92473 30 ft 0 kts 98°